K-HERO

Last updated on Wed Dec 31 2025 00:02:07 GMT+0000 (Coordinated Universal Time)

1 66660U 25274L 25364.56619568 .00004718 00000+0 45773-3 0 9998 2 66660 97.7409 291.4969 0013002 214.5036 145.5340 14.93073612 5068
UTC large
Height (km)
Speed (km/s)
/
Latitude / Longitude
Inclination (degrees)
Orbital Period (minutes)
Azimuth
Elevation
Range (km)
Doppler Factor

Next 0 passes for location: London (51.5072 / 0.1276)

Sorry there are no passes over London.